Wetbulb
56.84 56.28 56.02 56.39 56.48 56.20 56.29 56.21 56.27 57.02 57.40 57.21 57.10 57.16 57.13 57.17 57.40 58.05 58.62 57.85 58.75 59.10 57.77 57.15 56.67 56.23 53.33 44.61 43.55 52.44 56.54 54.91 53.57 51.81 51.46 51.87 50.62 48.84 44.97 44.49 45.49 43.82 42.61 43.34 44.13 44.43 43.94
56.91 56.18 55.80 55.99 56.20 56.15 56.05 56.08 56.45 56.90 57.26 57.28 56.78 56.77 57.07 56.55 56.48 57.38 58.07 58.54 58.75 58.05 57.99 57.33 56.72 55.14 48.21 39.43 51.69 53.69 53.41 51.80 50.94 50.94 50.16 52.96 48.99 48.56 44.55 43.16 44.17 43.99 43.59 42.83 44.13 43.51 43.70
56.51 56.22 56.03 55.88 56.02 56.26 56.02 56.11 55.95 56.57 56.91 57.07 56.84 56.33 57.17 56.54 56.37 56.32 57.09 57.16 57.34 57.62 57.04 56.98 54.73 51.29 46.16 43.13 52.45 54.28 51.02 49.61 50.36 51.53 48.57 49.03 49.75 48.09 46.41 42.53 44.08 43.30 41.12 43.11 43.20 42.95 42.58
56.48 56.10 55.84 55.98 55.94 55.73 55.83 55.66 55.66 56.18 56.54 56.58 56.29 55.93 56.27 56.16 55.62 55.99 56.10 56.21 56.81 57.26 57.49 57.03 55.21 50.67 42.94 52.35 55.29 51.59 51.88 50.50 51.76 51.77 49.74 50.14 50.79 46.65 45.17 45.26 42.88 41.37 42.60 40.27 41.42 43.01 42.86
56.46 55.87 55.50 55.62 55.55 55.72 55.69 55.59 55.50 55.89 56.22 55.95 55.55 55.38 56.00 55.99 55.26 55.37 56.16 56.55 56.22 56.04 55.54 55.24 52.14 49.30 42.52 54.30 48.93 51.54 51.47 48.40 49.80 50.19 49.87 49.44 48.99 44.57 44.00 42.63 40.36 40.07 37.72 38.01 38.46 42.47 41.94
56.53 55.68 55.29 55.54 55.30 55.46 55.68 55.70 55.69 55.94 55.96 55.65 55.05 54.93 55.59 56.01 54.21 55.10 54.88 55.62 54.77 55.00 53.26 52.50 50.55 45.96 47.01 44.64 49.03 49.66 51.97 50.23 48.33 48.31 47.91 46.82 45.47 42.71 42.16 41.39 35.09 36.24 36.42 36.44 37.38 40.33 41.43
56.41 55.74 55.30 55.18 55.59 55.46 55.57 55.63 55.47 55.44 55.65 55.39 54.79 54.59 55.03 55.47 54.75 53.23 52.87 51.20 47.94 45.88 47.99 43.69 43.45 43.93 44.99 48.87 51.21 49.25 49.81 48.81 48.31 46.27 41.01 42.07 41.11 37.79 37.53 38.38 39.43 39.67 38.75 37.42 37.80 40.04 39.62
56.13 55.67 55.60 55.29 55.00 55.07 55.22 55.09 55.34 55.67 55.43 55.18 54.69 54.30 54.66 54.39 52.82 51.48 52.05 46.44 44.97 47.14 41.34 45.43 46.14 45.94 47.22 47.66 44.77 47.40 50.60 45.28 44.29 39.22 40.83 40.64 35.85 37.78 38.49 39.21 39.47 39.31 38.01 36.61 37.61 39.55 39.25
56.13 55.62 55.61 55.40 55.15 55.08 55.04 54.98 55.05 55.08 55.21 54.91 54.57 54.23 54.30 53.43 52.26 51.24 48.16 46.34 49.66 47.95 42.97 42.83 44.33 44.55 45.13 47.63 43.21 44.31 47.20 43.46 41.25 39.02 39.65 38.02 36.82 39.02 39.01 38.73 38.18 37.43 36.81 35.97 36.17 38.69 38.11
56.32 55.58 55.76 55.45 54.98 54.79 54.85 54.82 54.82 55.05 54.68 54.48 54.26 54.16 53.57 52.92 50.89 48.59 46.56 48.44 49.40 48.51 40.15 37.40 41.93 45.02 46.73 45.37 42.19 47.42 47.70 44.28 41.10 37.19 38.34 37.93 39.65 38.00 38.41 36.72 38.15 35.54 38.60 37.69 36.38 37.23 35.60
56.24 56.02 55.78 55.71 55.18 54.72 54.54 54.76 54.72 54.73 54.53 54.20 54.05 53.73 52.86 50.75 48.80 46.66 47.15 49.24 49.53 45.47 30.02 38.63 41.18 49.02 47.08 42.98 42.57 44.53 48.03 45.15 39.00 37.15 38.67 34.99 37.14 37.48 37.09 36.60 39.11 36.30 39.41 37.92 36.79 36.33 33.43
56.32 55.87 55.74 55.86 55.58 54.99 54.41 54.36 54.46 54.27 54.21 54.32 53.69 53.28 51.05 49.60 49.85 47.73 49.20 48.32 45.68 40.20 26.32 34.73 41.11 40.54 41.20 42.61 42.24 44.34 44.25 46.45 43.84 40.57 40.74 38.09 41.30 40.21 38.84 39.97 40.17 40.18 37.61 36.49 36.56 35.80 31.44
56.31 56.19 55.66 55.55 55.55 55.17 54.64 54.08 54.27 54.02 53.93 53.56 52.84 52.29 50.38 48.61 46.87 48.97 48.57 44.98 39.95 30.67 34.72 34.51 36.87 39.88 39.49 38.78 39.87 40.53 39.02 38.48 36.63 34.70 34.27 36.97 37.26 40.35 41.10 38.37 39.86 38.30 35.81 33.52 31.61 31.11 31.67
55.24 56.28 56.07 56.01 55.71 55.27 54.97 54.57 53.61 53.73 53.72 53.53 50.71 49.66 48.54 48.41 49.89 48.59 46.32 42.43 31.07 30.72 32.99 38.14 38.50 38.32 36.48 38.84 39.02 39.07 37.52 36.57 39.16 37.12 34.75 32.95 30.16 37.35 40.13 38.95 37.00 36.47 35.39 32.20 26.27 29.21 32.36
54.62 54.74 56.11 56.43 55.93 55.32 54.93 54.81 54.20 53.97 53.90 53.02 49.18 50.20 50.25 49.64 49.25 47.94 45.10 35.14 33.65 34.88 38.10 37.25 37.45 35.72 35.71 37.63 38.27 38.53 37.33 36.43 37.89 38.49 34.36 33.33 32.37 39.74 40.08 41.81 40.13 36.06 35.55 36.34 31.24 29.67 29.86
55.71 55.13 54.35 55.94 55.69 55.33 54.92 54.75 54.15 53.82 53.36 50.37 49.46 48.53 47.23 49.08 49.02 47.42 43.29 33.97 35.86 37.66 39.64 38.93 34.12 36.02 33.93 36.15 36.32 37.18 36.23 38.93 37.76 39.87 40.57 35.74 32.23 37.49 39.19 41.91 41.47 38.72 39.83 33.89 35.18 28.57 28.07
55.48 55.49 54.43 55.37 55.50 55.16 54.99 54.65 54.06 53.65 52.34 49.34 47.84 47.03 46.87 48.98 47.51 46.27 37.98 36.87 38.19 40.88 41.25 38.07 36.18 35.62 36.41 35.99 36.90 36.10 35.89 38.83 40.43 39.49 40.75 39.15 36.40 35.02 38.93 37.31 36.94 36.92 36.41 35.70 35.33 33.60 30.28
55.15 54.56 54.28 55.12 54.79 54.67 54.57 54.44 54.10 53.31 51.61 47.69 46.07 45.02 46.85 48.12 44.43 41.11 38.81 39.20 40.60 39.94 41.71 40.23 40.11 38.27 37.25 36.88 36.31 36.07 35.82 38.72 42.34 41.55 37.13 39.36 36.98 34.05 34.93 38.66 40.03 39.32 37.41 37.51 33.78 29.28 32.44
54.70 54.86 54.22 54.88 54.27 54.24 54.19 54.01 53.69 52.98 50.72 46.85 43.43 44.21 46.66 45.15 41.83 38.37 38.85 38.81 39.86 39.24 39.65 39.32 38.47 39.42 39.33 37.00 34.20 36.50 37.19 41.10 42.10 40.54 38.59 39.48 35.53 30.33 30.88 35.19 37.45 36.38 37.80 37.65 34.97 35.39 31.28
53.93 54.81 54.76 54.76 54.27 54.04 54.01 53.56 53.16 52.42 50.56 45.84 43.68 42.79 45.65 43.72 40.60 39.80 37.80 37.19 37.25 40.56 39.91 40.19 39.23 39.70 38.09 36.37 37.54 35.61 36.13 40.15 41.81 41.42 41.86 41.18 35.24 32.60 30.49 30.04 36.43 33.58 35.55 36.74 36.56 32.83 33.07
53.92 54.59 54.65 54.84 54.87 54.35 53.98 53.06 52.69 51.83 49.67 47.71 42.29 38.85 38.35 39.23 39.17 39.15 38.65 37.78 36.05 36.18 39.54 40.19 37.81 38.28 37.48 34.54 35.01 34.83 36.43 37.65 40.39 42.03 40.38 39.92 32.74 31.84 34.01 34.51 34.00 33.34 33.82 35.13 33.71 35.50 31.47
54.31 54.41 54.65 54.73 54.96 54.67 53.88 52.71 52.20 51.16 49.44 44.11 42.61 40.98 40.42 38.19 37.04 37.89 37.06 36.72 36.33 37.08 38.42 37.04 36.67 38.27 38.54 35.32 36.22 34.45 36.65 37.01 36.77 39.41 39.34 38.14 33.27 32.31 30.24 33.38 32.10 30.21 33.31 33.74 34.04 34.85 34.96
54.69 54.32 54.35 54.52 54.65 54.89 53.96 52.53 51.90 50.34 48.96 44.29 41.36 41.74 40.97 36.18 36.74 36.82 35.63 35.85 36.94 38.56 39.45 39.33 39.17 38.17 36.98 39.10 40.47 40.78 41.09 39.67 38.97 38.02 37.91 36.61 34.89 31.54 28.64 30.74 31.40 29.10 32.64 33.26 33.55 34.99 34.93
55.04 54.71 54.51 54.50 54.23 54.32 54.21 52.88 51.78 50.03 46.73 45.93 42.88 41.29 41.08 38.56 36.85 36.74 36.26 37.28 37.38 38.52 37.43 39.06 39.59 38.51 39.80 43.30 41.54 39.98 39.38 38.19 37.87 38.19 38.99 34.98 34.16 33.44 29.38 30.29 25.25 33.49 35.08 35.60 34.70 36.15 37.14
55.43 55.27 55.12 54.92 54.47 54.21 54.23 53.86 51.54 50.10 46.74 45.26 43.27 42.47 41.13 39.53 35.84 36.50 35.09 36.64 36.80 37.13 36.98 37.74 39.85 41.33 42.23 40.61 36.92 33.65 31.67 32.25 32.77 34.22 35.41 36.41 35.79 31.22 27.57 26.45 32.06 31.86 32.49 33.12 32.91 35.36 37.58
55.57 55.31 55.37 55.05 54.76 54.18 53.86 54.19 52.65 49.86 46.20 45.31 43.33 42.62 42.00 40.68 40.03 37.61 36.55 36.09 35.98 36.24 35.54 36.57 40.12 41.78 40.68 37.91 34.84 29.46 28.85 29.39 28.93 30.58 34.19 34.64 35.48 32.84 28.31 24.50 25.24 32.69 35.61 37.84 37.10 32.41 36.79
55.43 55.12 55.03 54.98 54.87 54.68 54.39 54.09 54.04 51.03 47.74 46.52 43.57 42.87 42.43 39.98 41.62 38.18 37.38 38.25 37.54 36.10 35.70 35.87 37.77 38.19 39.27 35.32 31.60 29.98 29.68 30.93 28.44 28.09 28.24 29.16 30.26 28.76 29.38 27.39 31.71 38.10 37.76 37.92 31.45 33.92 37.80
54.74 54.66 54.64 54.58 54.53 54.44 54.39 54.14 54.05 53.35 49.53 47.80 45.22 43.36 43.98 41.97 42.82 39.18 40.09 38.40 37.55 38.14 37.72 37.72 37.62 35.73 36.02 33.45 32.10 31.80 29.91 31.46 29.61 31.41 30.89 30.10 28.63 27.93 29.63 26.42 25.18 39.14 36.16 34.90 38.98 40.82 39.64
53.11 52.41 51.91 51.59 51.77 52.03 52.50 53.35 54.00 53.99 51.29 47.90 45.74 42.92 43.37 42.27 44.01 42.39 43.01 42.99 42.96 43.95 41.16 37.94 37.11 35.17 38.57 35.12 32.56 33.30 30.65 30.94 31.10 29.69 32.29 29.07 34.44 31.99 33.21 34.21 39.25 38.94 40.16 40.98 40.42 39.40 39.60
MSLP
1021.56 1021.25 1020.86 1020.35 1020.12 1019.75 1019.13 1018.78 1018.47 1017.99 1017.36 1016.78 1016.11 1015.36 1014.46 1013.62 1012.87 1011.83 1011.21 1011.33 1011.04 1010.96 1011.24 1011.34 1011.57 1012.32 1012.80 1014.34 1015.54 1014.93 1014.40 1013.75 1013.22 1012.94 1012.50 1012.61 1012.57 1012.99 1013.41 1014.35 1015.00 1015.50 1016.56 1016.86 1017.04 1016.96 1016.92
1021.81 1021.34 1021.07 1020.52 1020.20 1019.94 1019.39 1018.95 1018.67 1018.18 1017.69 1017.09 1016.41 1015.67 1015.01 1014.39 1013.76 1013.28 1012.77 1012.36 1012.08 1012.40 1012.48 1012.58 1012.89 1012.99 1013.67 1014.74 1015.07 1014.87 1014.27 1013.60 1013.18 1012.97 1012.81 1012.69 1012.99 1013.51 1014.36 1015.07 1015.25 1016.51 1016.88 1017.30 1017.38 1017.40 1017.37
1021.89 1021.47 1021.21 1020.65 1020.17 1020.07 1019.59 1019.09 1018.87 1018.36 1017.85 1017.36 1016.70 1015.97 1015.63 1015.03 1014.50 1014.28 1013.89 1013.47 1013.38 1013.25 1013.22 1013.38 1014.33 1014.44 1014.73 1015.59 1014.87 1014.10 1013.91 1013.81 1013.57 1013.13 1013.01 1013.51 1013.69 1013.59 1014.68 1015.52 1016.73 1016.87 1016.92 1017.09 1017.62 1017.70 1017.61
1022.01 1021.63 1021.29 1020.83 1020.33 1020.04 1019.78 1019.29 1019.05 1018.51 1017.95 1017.57 1017.09 1016.39 1015.84 1015.48 1015.01 1014.52 1014.41 1014.38 1014.03 1013.99 1013.91 1014.20 1014.24 1013.94 1014.13 1014.91 1014.66 1014.37 1014.03 1013.78 1013.83 1013.68 1013.70 1014.26 1014.06 1014.44 1015.09 1016.16 1016.53 1016.39 1016.54 1016.77 1017.97 1017.91 1017.86
1022.26 1021.83 1021.56 1021.13 1020.55 1020.19 1019.91 1019.47 1019.06 1018.73 1018.11 1017.74 1017.29 1016.79 1016.11 1015.51 1015.26 1014.50 1014.45 1014.37 1014.42 1014.29 1014.31 1014.04 1014.21 1013.90 1014.58 1014.87 1014.95 1014.98 1014.51 1014.32 1014.21 1014.22 1014.40 1014.39 1014.40 1015.51 1016.03 1015.50 1015.86 1016.26 1016.32 1016.88 1017.90 1018.43 1018.16
1022.50 1022.11 1021.79 1021.29 1020.80 1020.24 1019.99 1019.69 1019.14 1018.83 1018.20 1017.97 1017.53 1017.11 1016.49 1015.80 1015.20 1014.88 1014.59 1014.50 1014.49 1014.17 1014.06 1014.03 1014.47 1014.39 1015.41 1016.08 1015.78 1015.41 1014.97 1014.64 1014.46 1014.33 1014.25 1014.64 1015.10 1015.60 1015.85 1015.40 1015.15 1015.64 1016.48 1017.35 1017.74 1018.52 1018.22
1022.75 1022.33 1021.95 1021.47 1020.96 1020.40 1019.96 1019.75 1019.39 1018.87 1018.45 1017.79 1017.65 1017.41 1016.98 1016.38 1015.66 1015.15 1014.68 1014.53 1014.99 1015.61 1015.26 1016.13 1016.47 1016.32 1016.64 1016.40 1015.87 1015.35 1015.40 1014.86 1014.68 1014.80 1015.00 1015.87 1015.22 1016.46 1016.94 1016.58 1016.00 1015.95 1016.43 1017.11 1018.17 1018.83 1018.42
1023.10 1022.61 1022.16 1021.73 1021.12 1020.58 1020.07 1019.70 1019.48 1019.01 1018.56 1018.05 1017.75 1017.57 1017.09 1016.61 1016.26 1015.69 1015.41 1015.99 1017.35 1017.68 1017.06 1016.95 1016.80 1016.69 1016.86 1016.76 1015.85 1015.92 1015.40 1015.35 1015.43 1015.77 1016.27 1016.42 1017.14 1018.36 1018.19 1017.50 1016.88 1016.85 1017.02 1017.74 1018.66 1019.00 1018.63
1023.46 1022.91 1022.39 1021.99 1021.52 1020.83 1020.31 1019.81 1019.41 1019.18 1018.72 1018.26 1017.79 1017.63 1017.21 1016.72 1016.28 1016.24 1016.73 1017.59 1017.80 1017.83 1017.08 1017.46 1017.54 1017.29 1017.53 1017.00 1017.13 1017.03 1016.69 1016.97 1016.80 1016.80 1016.83 1017.08 1019.09 1019.15 1018.63 1018.24 1017.79 1018.16 1017.99 1018.52 1019.09 1019.16 1019.08
1023.62 1023.20 1022.74 1022.28 1021.81 1021.24 1020.66 1019.96 1019.38 1019.07 1018.97 1018.51 1018.06 1017.66 1017.30 1016.65 1016.82 1017.35 1017.53 1018.09 1018.07 1017.90 1017.71 1018.81 1017.63 1017.79 1017.59 1017.46 1017.55 1017.97 1017.91 1017.79 1017.81 1018.26 1018.41 1019.03 1019.79 1019.49 1019.29 1019.23 1019.08 1018.87 1019.69 1019.65 1019.69 1019.26 1018.99
1023.84 1023.42 1023.02 1022.52 1022.04 1021.56 1020.98 1020.33 1019.66 1019.03 1018.61 1018.55 1018.31 1017.87 1017.54 1017.09 1017.49 1017.77 1018.56 1018.31 1018.12 1017.77 1018.45 1019.71 1018.61 1018.19 1017.97 1017.80 1018.56 1018.13 1018.31 1017.64 1018.31 1018.84 1019.02 1020.38 1020.16 1020.08 1020.03 1020.37 1019.99 1020.29 1020.45 1020.36 1020.20 1019.78 1019.73
1024.00 1023.56 1023.14 1022.64 1022.16 1021.72 1021.22 1020.65 1019.99 1019.36 1018.75 1018.15 1018.09 1017.93 1017.55 1017.55 1017.82 1018.68 1018.56 1018.30 1017.95 1017.98 1020.12 1020.07 1019.33 1018.82 1018.22 1018.42 1018.60 1018.46 1018.35 1018.44 1019.31 1019.24 1019.68 1020.67 1021.08 1020.97 1020.94 1021.05 1020.73 1020.93 1020.79 1020.63 1020.38 1019.94 1019.49
1024.06 1023.76 1023.26 1022.73 1022.19 1021.67 1021.21 1020.74 1020.13 1019.43 1018.87 1018.31 1017.91 1017.97 1017.70 1017.93 1018.28 1018.55 1018.56 1018.25 1018.07 1019.40 1021.61 1020.60 1019.89 1019.29 1019.01 1019.15 1019.11 1019.22 1019.27 1019.35 1019.63 1019.99 1020.43 1020.87 1021.21 1021.37 1021.34 1021.05 1021.26 1020.92 1020.59 1020.34 1020.13 1019.84 1018.99
1024.11 1023.78 1023.41 1022.87 1022.24 1021.68 1021.12 1020.56 1020.01 1019.43 1018.83 1018.39 1018.04 1017.91 1018.35 1018.41 1018.47 1018.43 1018.18 1018.03 1018.76 1021.07 1020.87 1020.71 1020.36 1019.81 1019.45 1019.66 1019.83 1019.86 1019.86 1020.12 1020.50 1020.47 1020.74 1020.92 1021.65 1021.46 1021.62 1021.35 1021.15 1021.27 1021.16 1020.71 1020.10 1019.65 1018.94
1024.09 1023.74 1023.42 1023.01 1022.42 1021.79 1021.13 1020.48 1019.82 1019.23 1018.67 1018.27 1018.24 1018.14 1018.16 1018.42 1018.56 1018.35 1017.80 1018.76 1020.65 1020.74 1020.66 1020.47 1020.21 1019.86 1019.93 1019.91 1019.84 1019.81 1020.26 1020.52 1020.96 1020.94 1020.69 1021.03 1021.50 1021.89 1021.81 1021.69 1021.72 1021.66 1021.41 1021.71 1021.06 1020.80 1019.76
1024.27 1023.71 1023.44 1023.00 1022.54 1021.91 1021.23 1020.52 1019.78 1019.04 1018.43 1018.30 1018.07 1018.13 1018.41 1018.60 1018.51 1018.08 1017.93 1020.19 1021.01 1021.27 1021.11 1020.76 1020.08 1020.14 1019.73 1019.81 1019.77 1019.86 1020.24 1020.77 1020.94 1021.10 1020.88 1021.08 1021.29 1021.94 1022.04 1021.94 1022.05 1021.77 1021.99 1021.81 1021.02 1020.22 1018.85
1024.52 1023.82 1023.44 1022.98 1022.51 1021.95 1021.25 1020.53 1019.85 1019.03 1018.42 1018.32 1018.14 1018.18 1018.63 1018.65 1018.47 1017.85 1019.35 1020.63 1021.08 1021.26 1021.19 1020.92 1020.54 1020.29 1020.07 1019.98 1020.11 1020.10 1020.33 1020.73 1020.79 1021.02 1021.03 1020.90 1020.83 1021.87 1021.84 1021.40 1021.22 1021.96 1021.54 1021.51 1021.15 1020.50 1019.23
1024.57 1024.08 1023.55 1023.01 1022.46 1021.94 1021.30 1020.61 1019.86 1019.18 1018.44 1018.34 1018.28 1018.34 1018.83 1018.94 1018.71 1019.71 1020.38 1020.87 1020.99 1021.13 1021.19 1020.98 1020.75 1020.56 1020.34 1020.35 1020.20 1020.31 1020.53 1020.80 1021.06 1021.14 1021.07 1021.16 1020.89 1020.94 1021.05 1021.45 1021.56 1021.41 1021.02 1020.91 1020.30 1020.24 1019.57
1024.53 1024.23 1023.69 1023.18 1022.62 1022.05 1021.38 1020.76 1020.07 1019.44 1018.91 1018.73 1018.79 1018.93 1018.73 1018.74 1019.44 1020.39 1021.03 1021.09 1021.18 1021.17 1020.99 1020.89 1020.67 1020.53 1020.54 1020.34 1020.36 1020.40 1020.59 1021.06 1021.32 1021.47 1021.51 1021.55 1021.30 1021.01 1021.18 1021.75 1021.75 1021.36 1020.96 1020.83 1020.72 1020.17 1019.00
1024.46 1024.16 1023.81 1023.34 1022.85 1022.32 1021.67 1021.01 1020.23 1019.64 1019.21 1019.03 1019.19 1019.42 1019.21 1019.46 1020.80 1020.45 1020.70 1020.92 1021.08 1021.18 1021.07 1021.03 1020.88 1020.80 1020.64 1020.56 1020.67 1020.47 1020.62 1021.08 1021.38 1021.53 1021.80 1021.88 1021.50 1020.96 1020.48 1020.43 1020.44 1020.51 1020.38 1020.43 1020.09 1019.52 1017.75
1024.45 1024.15 1023.80 1023.44 1023.05 1022.50 1022.02 1021.43 1020.53 1019.81 1019.28 1019.32 1020.22 1021.52 1021.90 1021.12 1021.00 1021.00 1020.94 1020.98 1020.99 1021.11 1021.19 1021.11 1020.98 1020.79 1020.52 1020.43 1020.48 1020.56 1020.99 1021.43 1021.72 1021.72 1021.77 1021.41 1021.11 1021.19 1020.71 1020.46 1020.43 1020.08 1019.83 1019.82 1019.32 1018.53 1017.53
1024.26 1024.07 1023.82 1023.51 1023.13 1022.72 1022.34 1021.77 1021.03 1020.15 1019.49 1020.31 1021.60 1021.97 1022.15 1021.82 1021.75 1021.20 1021.22 1021.19 1021.05 1020.99 1021.07 1021.04 1020.93 1020.58 1020.69 1020.53 1020.41 1020.35 1020.60 1021.05 1021.23 1022.08 1022.03 1022.10 1021.50 1021.39 1020.28 1019.72 1019.95 1019.36 1018.82 1018.90 1019.01 1018.54 1017.55
1023.86 1023.83 1023.73 1023.52 1023.19 1022.89 1022.63 1022.29 1021.80 1020.92 1019.93 1021.26 1022.76 1022.67 1022.23 1022.19 1021.73 1021.44 1021.39 1021.31 1021.25 1021.24 1021.16 1021.12 1021.03 1021.01 1020.86 1020.53 1020.46 1020.47 1020.69 1021.07 1021.27 1021.54 1021.94 1022.19 1021.80 1021.50 1019.98 1019.82 1019.23 1017.84 1016.88 1017.11 1017.20 1017.04 1016.71
1023.26 1023.23 1023.31 1023.33 1023.19 1022.95 1022.67 1022.40 1022.20 1021.92 1021.56 1021.99 1022.89 1022.74 1022.25 1021.96 1021.86 1021.63 1021.56 1021.48 1021.29 1021.25 1021.37 1021.31 1021.49 1021.38 1021.51 1021.13 1021.09 1021.04 1021.04 1021.22 1021.53 1021.65 1021.91 1022.04 1022.09 1021.86 1020.50 1019.78 1018.31 1016.09 1016.16 1016.13 1016.00 1015.72 1015.66
1022.70 1022.83 1022.79 1022.78 1022.87 1022.83 1022.73 1022.57 1022.37 1022.30 1022.36 1022.39 1023.14 1022.84 1022.69 1022.32 1022.22 1021.81 1021.81 1021.66 1021.53 1021.43 1021.41 1021.44 1021.43 1021.66 1021.53 1021.26 1021.03 1020.71 1020.85 1021.21 1021.77 1022.31 1022.26 1022.15 1021.83 1021.56 1021.04 1019.70 1016.91 1016.09 1016.21 1015.96 1015.67 1014.76 1014.61
1022.30 1022.33 1022.32 1022.39 1022.40 1022.40 1022.45 1022.55 1022.59 1022.47 1022.51 1022.70 1023.30 1023.35 1022.89 1022.69 1022.12 1022.03 1021.96 1021.94 1021.71 1021.57 1021.60 1021.59 1021.90 1021.90 1021.96 1021.46 1021.15 1020.73 1020.23 1020.36 1021.30 1022.20 1022.75 1022.64 1022.30 1021.55 1021.13 1019.73 1017.02 1015.54 1015.74 1015.99 1015.89 1014.73 1014.63
1021.53 1021.84 1021.94 1021.86 1021.92 1022.01 1022.10 1022.13 1022.28 1022.49 1022.59 1022.67 1023.32 1023.39 1022.96 1022.82 1022.01 1022.11 1021.93 1021.83 1021.96 1022.02 1021.75 1021.77 1021.91 1022.14 1022.02 1021.67 1021.24 1020.77 1020.27 1020.50 1020.54 1021.00 1022.02 1022.38 1022.15 1021.30 1020.66 1019.55 1016.75 1015.50 1015.93 1016.28 1015.80 1015.35 1014.84
1020.98 1021.31 1021.54 1021.53 1021.44 1021.49 1021.67 1021.89 1021.89 1022.08 1022.37 1022.59 1023.22 1023.42 1023.12 1022.79 1022.04 1021.97 1021.71 1021.58 1021.91 1021.89 1021.60 1021.95 1022.16 1022.26 1022.16 1021.84 1021.35 1020.78 1020.53 1020.38 1020.43 1020.23 1020.55 1020.50 1020.60 1020.47 1020.08 1019.11 1016.66 1015.48 1016.06 1015.68 1014.85 1014.71 1015.11
1020.81 1021.08 1021.45 1021.61 1021.39 1021.22 1021.15 1021.35 1021.59 1021.70 1021.87 1022.14 1022.94 1023.29 1023.38 1023.28 1022.35 1022.07 1021.58 1021.24 1021.08 1021.13 1021.27 1021.87 1022.04 1021.97 1021.66 1021.49 1021.48 1021.16 1020.68 1020.45 1020.00 1019.56 1020.01 1019.66 1018.51 1018.38 1017.95 1016.18 1015.31 1015.44 1014.93 1014.85 1015.03 1015.30 1015.22
Wind_Speed
15 14 16 16 16 17 17 18 20 21 21 22 23 23 23 26 28 28 21 19 19 27 26 25 25 12 4 8 4 10 17 8 2 5 12 14 15 9 9 8 7 11 6 7 7 8 7
17 16 15 16 16 16 17 18 20 20 21 21 22 22 22 23 23 26 25 23 21 24 21 21 24 17 8 10 7 9 8 4 4 6 7 11 7 9 10 7 6 7 11 8 7 6 6
16 17 16 16 17 16 16 18 19 20 20 20 21 21 20 18 19 20 20 20 21 15 13 21 21 12 13 4 8 10 5 3 2 4 7 5 8 4 6 11 6 7 10 6 10 6 4
17 16 17 18 17 17 17 17 17 19 19 20 20 20 19 18 13 12 13 13 14 12 9 13 8 3 12 1 5 13 5 13 11 14 14 10 12 13 4 11 4 4 3 6 5 8 2
18 17 17 17 18 18 17 17 18 18 19 18 18 18 19 15 9 2 8 12 7 7 9 4 6 3 9 8 7 9 7 9 9 9 8 5 6 6 4 11 8 3 5 4 3 6 5
17 17 18 18 18 18 18 17 18 18 19 18 17 18 18 16 12 4 5 2 11 5 2 2 5 6 9 8 5 6 4 6 7 5 5 7 5 7 5 5 7 9 6 3 3 3 3
17 17 17 17 19 19 19 18 17 18 18 19 18 18 15 13 12 8 2 3 5 11 17 15 8 8 3 8 2 12 5 2 3 8 6 6 8 9 6 4 5 9 8 6 2 2 5
17 17 17 17 18 19 19 18 17 17 17 18 18 17 17 15 8 9 5 7 4 3 13 9 9 6 3 3 9 17 10 6 7 7 1 6 11 5 4 5 9 7 8 4 2 1 4
16 17 17 17 17 19 20 19 18 17 17 16 17 17 17 18 4 4 7 5 2 2 6 11 5 7 5 8 8 12 9 3 9 11 10 10 6 2 5 7 9 7 4 3 3 3 1
16 17 17 18 18 18 19 20 20 18 15 15 15 16 17 17 0 2 4 1 3 3 5 14 12 9 8 4 7 5 5 3 6 8 7 9 4 4 6 6 4 4 3 3 2 3 3
17 18 18 18 18 19 19 19 20 20 18 14 12 12 12 12 2 3 4 4 2 4 6 15 8 6 8 6 3 11 6 7 7 5 2 3 4 5 6 3 4 5 2 3 1 1 3
18 18 19 19 19 20 20 20 19 18 17 17 12 10 6 3 3 2 4 3 3 1 6 5 5 8 5 9 5 4 6 8 1 10 14 6 2 3 3 5 6 9 3 2 1 1 3
15 17 19 20 20 20 20 20 19 20 17 14 9 6 3 0 2 1 0 2 2 8 2 4 4 5 5 8 6 8 6 7 4 3 3 2 3 2 1 4 3 1 1 1 2 2 3
15 15 17 18 19 19 20 19 20 20 18 12 5 3 4 3 1 2 3 0 11 1 2 1 3 2 5 6 6 5 2 4 7 4 3 3 4 1 2 4 3 3 2 2 4 3 2
15 16 15 16 19 20 21 21 21 19 16 7 1 2 2 4 1 2 2 8 3 3 3 4 1 3 3 3 2 2 5 3 3 5 2 2 4 2 4 3 4 3 1 3 1 2 4
13 14 17 16 19 19 20 22 22 22 17 2 1 1 2 5 2 2 6 5 2 1 1 1 1 1 2 2 1 2 3 1 3 0 3 3 4 2 2 2 5 2 4 3 1 3 5
13 12 16 15 16 19 20 22 22 23 18 2 0 1 2 1 3 4 6 5 3 2 0 2 1 2 2 2 3 1 2 2 3 4 0 3 2 4 3 7 6 5 4 2 1 3 3
12 13 14 14 15 18 20 22 23 23 16 3 0 3 3 2 4 3 3 3 2 3 1 2 1 1 1 2 2 1 1 4 2 2 2 1 0 4 2 2 2 3 3 6 4 5 3
11 12 13 13 13 16 18 21 23 23 14 2 3 2 1 3 4 3 3 3 0 3 3 3 2 2 1 2 2 2 2 2 4 1 0 2 2 2 3 3 2 6 8 5 1 1 8
10 11 12 13 13 13 16 19 21 23 14 2 1 3 4 5 3 3 4 3 3 1 2 1 1 1 2 2 2 3 4 3 4 2 4 2 3 6 3 3 1 5 8 13 11 6 6
8 10 10 11 12 12 14 18 21 22 14 1 5 3 1 4 5 4 2 2 3 3 1 3 2 5 3 4 3 3 2 2 2 4 4 5 5 2 8 10 9 12 14 13 19 18 11
8 9 9 11 13 11 12 16 20 22 10 6 3 2 1 2 2 1 2 0 2 1 3 2 4 3 6 4 3 3 5 4 3 4 5 3 2 1 6 4 5 11 14 17 19 21 23
7 8 8 9 9 11 11 12 16 21 9 4 1 1 3 1 1 1 1 1 1 1 2 1 2 2 5 8 5 2 4 2 1 3 7 4 3 2 5 2 11 11 9 13 10 10 16
11 9 7 7 8 8 7 8 11 14 9 2 2 0 2 1 2 1 1 2 2 2 2 1 1 2 3 1 0 1 1 1 3 6 2 5 4 2 5 7 5 4 2 4 13 9 16
11 10 9 7 6 6 6 4 6 9 8 3 2 1 2 3 2 3 3 3 2 2 3 3 3 1 1 1 3 4 3 3 3 3 5 3 6 3 4 4 11 3 4 6 8 3 7
11 10 10 9 9 8 7 5 1 3 4 3 2 1 1 2 2 1 1 1 2 2 2 2 1 1 1 1 2 3 3 1 3 3 5 5 3 6 2 4 5 3 2 2 2 5 4
13 12 11 10 10 9 9 7 5 4 3 2 2 2 2 1 2 4 3 2 2 1 2 1 2 2 0 2 3 4 3 1 4 5 6 5 5 12 9 6 10 5 5 2 4 4 1
11 10 10 9 8 7 7 8 8 8 8 2 2 3 1 2 3 6 5 5 3 3 3 3 2 1 2 5 3 3 4 2 3 3 6 8 9 6 7 6 9 8 6 6 4 6 7
8 6 4 2 1 2 5 8 9 9 12 7 2 2 2 2 3 2 5 4 3 4 3 3 3 1 3 2 2 1 4 3 4 3 2 6 7 5 11 7 3 5 8 1 4 11 10
Wind_Direction
20 11 6 359 8 11 359 0 360 1 3 8 10 14 12 16 23 32 64 82 93 105 107 104 102 78 42 67 28 298 318 334 107 169 144 153 148 139 112 108 104 95 107 70 91 96 79
19 14 13 357 7 12 3 359 2 359 1 3 10 11 21 23 23 34 51 65 88 99 99 97 98 66 33 53 299 306 329 331 91 138 126 152 124 115 91 69 51 108 105 99 69 80 66
22 17 10 3 0 11 8 360 1 360 360 1 4 6 14 25 20 30 43 51 74 91 78 82 95 112 81 40 317 339 11 358 346 127 103 77 122 101 130 105 110 117 103 101 37 8 57
24 18 8 8 360 8 11 2 4 0 358 359 360 359 9 25 27 4 25 30 44 52 56 94 109 111 80 232 318 28 66 80 79 72 93 92 91 90 65 120 99 104 127 146 28 351 6
23 18 13 6 5 3 11 6 1 3 357 359 1 1 359 23 36 35 18 45 30 38 46 23 67 47 52 344 22 343 28 81 95 77 68 81 73 74 142 129 119 56 138 123 126 27 316
21 20 13 8 5 359 9 10 1 3 356 0 1 3 3 2 45 26 15 352 25 34 61 61 63 79 23 349 320 335 23 38 72 98 79 42 72 112 118 170 164 148 133 133 146 26 314
19 18 17 12 3 1 1 7 5 360 0 354 359 3 7 2 9 25 319 355 39 49 50 75 60 89 15 316 287 26 4 338 46 54 92 30 119 96 69 35 82 122 127 137 118 53 304
17 16 16 11 8 0 359 360 4 1 359 355 356 360 355 354 6 10 44 68 38 19 74 37 61 67 42 318 46 19 8 42 39 74 124 100 78 51 80 93 103 113 131 93 112 9 302
17 14 13 12 9 2 358 357 357 360 358 355 353 357 352 343 309 29 62 62 138 204 64 37 14 30 353 18 42 10 10 42 47 61 63 78 76 56 99 92 106 60 76 107 14 324 264
17 12 11 11 7 5 359 355 352 353 356 352 351 353 354 339 61 337 45 79 251 266 79 2 3 38 357 346 60 8 14 18 59 77 60 63 36 83 86 71 344 112 54 83 34 301 278
17 12 9 9 7 3 2 357 352 349 346 349 348 350 0 26 57 37 5 330 282 240 64 337 342 325 355 56 335 27 16 41 66 54 275 68 66 64 67 31 346 93 90 69 47 59 338
16 14 11 9 8 3 360 358 352 349 344 338 341 343 349 59 74 31 337 330 254 71 56 353 332 359 39 32 38 349 38 55 95 68 70 82 51 23 69 66 68 130 123 114 135 307 255
13 12 11 10 9 4 0 356 354 349 345 344 341 5 34 118 70 90 51 271 68 59 329 360 349 355 54 33 43 26 31 43 36 94 39 76 50 70 23 114 113 149 215 259 223 206 281
7 5 7 4 5 4 360 355 354 352 342 340 347 85 54 37 315 203 168 202 66 220 205 123 307 347 56 13 52 31 83 66 51 24 124 140 165 83 19 25 14 56 318 303 277 267 345
1 5 360 359 1 3 0 355 351 352 345 336 245 58 63 22 297 268 233 53 104 185 140 169 130 65 69 42 31 77 51 63 44 16 35 135 91 63 43 32 338 103 241 17 1 134 270
348 1 360 356 357 358 359 357 353 354 355 34 140 109 44 339 326 259 70 99 71 77 50 326 105 272 129 54 65 51 36 103 134 178 290 139 121 50 100 168 74 328 119 194 165 303 280
336 355 356 355 355 354 356 356 357 354 357 123 7 137 40 46 248 56 73 81 123 169 49 357 101 116 85 70 13 75 131 140 211 153 201 160 272 125 212 203 182 162 194 181 336 258 288
340 349 352 349 354 354 356 354 356 358 357 58 324 39 53 255 49 35 57 84 136 149 154 139 128 68 136 146 137 148 316 356 128 168 170 79 168 175 162 91 324 276 242 202 246 184 228
328 335 347 351 350 354 354 354 355 359 12 333 38 323 102 264 78 78 116 100 29 153 190 174 159 198 173 168 169 169 160 85 155 182 68 160 229 182 176 166 176 231 198 212 135 334 214
316 331 342 343 348 353 353 352 354 359 3 55 42 16 22 55 23 86 142 141 150 158 162 191 124 166 165 182 257 184 194 154 165 176 93 173 265 273 323 52 70 209 203 207 210 215 240
297 313 330 340 338 350 355 355 353 357 2 319 14 77 83 359 43 61 356 143 144 194 248 201 185 232 206 183 185 229 219 162 190 180 150 197 221 216 272 265 254 261 256 216 214 227 242
280 297 317 333 341 350 358 1 356 354 360 75 22 347 130 81 308 359 15 157 228 150 193 203 239 172 200 229 257 193 177 212 226 177 201 206 258 259 271 243 235 261 256 244 247 249 258
259 278 299 317 334 351 0 3 5 1 5 80 67 105 291 11 44 293 68 99 3 351 147 312 257 232 227 253 241 244 250 314 299 195 197 215 226 277 271 297 299 265 238 213 211 220 233
233 234 264 297 318 336 351 7 15 21 38 69 74 70 335 334 286 293 198 212 213 193 263 6 200 231 23 358 162 149 112 135 207 209 220 175 195 254 285 309 244 94 174 224 201 231 216
232 239 246 247 277 303 319 350 31 35 37 77 121 60 46 303 320 271 239 240 258 229 226 234 200 289 284 350 272 277 189 187 97 48 225 219 200 246 275 279 306 159 186 171 200 165 196
223 230 238 248 254 259 277 291 271 81 94 88 94 137 98 315 211 290 293 281 299 273 234 213 137 131 330 196 209 248 256 7 170 146 33 181 268 229 189 264 254 76 134 183 245 189 152
222 232 237 235 244 251 250 250 238 197 156 119 118 208 120 247 215 172 199 228 135 276 271 275 178 170 15 201 221 228 246 328 226 190 161 151 201 218 229 272 281 253 144 167 264 45 235
224 236 244 245 243 244 251 257 238 207 177 178 98 200 257 210 258 200 201 175 155 210 254 113 221 155 126 213 221 222 230 202 255 154 179 181 167 192 199 229 268 152 113 217 43 332 305
169 161 158 154 91 302 267 253 246 226 182 161 207 156 150 230 296 245 253 250 214 200 174 187 339 181 214 185 231 247 227 198 230 248 202 228 215 187 208 224 28 201 262 287 3 305 306